Location: Kellogg
(38.0159°N, 90.0546°W)
Time: 15:08:28
(UTC+00:00)

Vanguard 1 Rocket - Pass Details

Date: 21 September 2024
Orbit: 650 x 4218 km, 34.3° (Epoch: 07 October)

Event Time Altitude Azimuth Distance (km) Brightness Sun altitude
Rises 10:10:54 0° 263° (W) 5,233 - -19.6°
Reaches altitude 10° 10:13:38 10° 262° (W) 4,582 - -19.1°
Exits shadow 10:16:41 23° 260° (W) 3,958 10.0 -18.5°
Maximum altitude 10:27:54 79° 178° (S) 3,246 10.1 -16.4°
Drops below altitude 10° 10:53:03 10° 97° (E) 7,404 13.3 -11.5°
Sets 10:59:01 0° 97° (E) 8,451 14.0 -10.4°
